���t ����,���t,����,���[1m,���[3m,���[10m
2024/03/01 1:00:00,2024/03/01,01:00:00,17.75,17.63,17.53
2024/03/01 2:00:00,2024/03/01,02:00:00,17.7,17.59,17.43
2024/03/01 3:00:00,2024/03/01,03:00:00,17.64,17.54,17.54
2024/03/01 4:00:00,2024/03/01,04:00:00,17.64,17.55,17.57
2024/03/01 5:00:00,2024/03/01,05:00:00,17.51,17.42,17.49
2024/03/01 6:00:00,2024/03/01,06:00:00,17.31,17.22,17.23
2024/03/01 7:00:00,2024/03/01,07:00:00,17.38,17.29,17.29
2024/03/01 8:00:00,2024/03/01,08:00:00,17.51,17.45,17.49
2024/03/01 9:00:00,2024/03/01,09:00:00,17.46,17.4,17.45
2024/03/01 10:00:00,2024/03/01,10:00:00,17.35,17.25,17.25
2024/03/01 11:00:00,2024/03/01,11:00:00,17.4,17.33,17.38
2024/03/01 12:00:00,2024/03/01,12:00:00,17.45,17.39,17.44
2024/03/01 13:00:00,2024/03/01,13:00:00,17.49,17.41,17.45
2024/03/01 14:00:00,2024/03/01,14:00:00,17.93,17.84,17.88
2024/03/01 15:00:00,2024/03/01,15:00:00,17.85,17.79,17.83
2024/03/01 16:00:00,2024/03/01,16:00:00,17.79,17.73,17.76
2024/03/01 17:00:00,2024/03/01,17:00:00,17.7,17.6,17.69
2024/03/01 18:00:00,2024/03/01,18:00:00,17.45,17.35,17.44
2024/03/01 19:00:00,2024/03/01,19:00:00,17.45,17.36,17.43
2024/03/01 20:00:00,2024/03/01,20:00:00,17.43,17.35,17.44
2024/03/01 21:00:00,2024/03/01,21:00:00,17.51,17.44,17.51
2024/03/01 22:00:00,2024/03/01,22:00:00,17.61,17.54,17.61
2024/03/01 23:00:00,2024/03/01,23:00:00,17.64,17.54,17.63
2024/03/02 0:00:00,2024/03/02,00:00:00,17.63,17.54,17.61
2024/03/02 1:00:00,2024/03/02,01:00:00,17.58,17.51,17.57
2024/03/02 2:00:00,2024/03/02,02:00:00,17.64,17.55,17.63
2024/03/02 3:00:00,2024/03/02,03:00:00,17.65,17.58,17.64
2024/03/02 4:00:00,2024/03/02,04:00:00,17.64,17.55,17.62
2024/03/02 5:00:00,2024/03/02,05:00:00,17.58,17.53,17.58
2024/03/02 6:00:00,2024/03/02,06:00:00,17.57,17.48,17.56
2024/03/02 7:00:00,2024/03/02,07:00:00,17.61,17.54,17.57
2024/03/02 8:00:00,2024/03/02,08:00:00,17.58,17.52,17.59
2024/03/02 9:00:00,2024/03/02,09:00:00,17.57,17.48,17.57
2024/03/02 10:00:00,2024/03/02,10:00:00,17.58,17.48,17.58
2024/03/02 11:00:00,2024/03/02,11:00:00,17.57,17.49,17.56
2024/03/02 12:00:00,2024/03/02,12:00:00,17.57,17.48,17.57
2024/03/02 13:00:00,2024/03/02,13:00:00,17.58,17.53,17.57
2024/03/02 14:00:00,2024/03/02,14:00:00,17.6,17.53,17.58
2024/03/02 15:00:00,2024/03/02,15:00:00,17.57,17.5,17.57
2024/03/02 16:00:00,2024/03/02,16:00:00,17.57,17.47,17.54
2024/03/02 17:00:00,2024/03/02,17:00:00,17.47,17.41,17.45
2024/03/02 18:00:00,2024/03/02,18:00:00,17.51,17.41,17.49
2024/03/02 19:00:00,2024/03/02,19:00:00,17.42,17.35,17.41
2024/03/02 20:00:00,2024/03/02,20:00:00,17.33,17.28,17.32
2024/03/02 21:00:00,2024/03/02,21:00:00,17.33,17.27,17.32
2024/03/02 22:00:00,2024/03/02,22:00:00,17.32,17.23,17.3
2024/03/02 23:00:00,2024/03/02,23:00:00,17.26,17.19,17.3
2024/03/03 0:00:00,2024/03/03,00:00:00,17.33,17.28,17.32
2024/03/03 1:00:00,2024/03/03,01:00:00,17.32,17.24,17.31
2024/03/03 2:00:00,2024/03/03,02:00:00,17.33,17.26,17.31
2024/03/03 3:00:00,2024/03/03,03:00:00,17.32,17.22,17.28
2024/03/03 4:00:00,2024/03/03,04:00:00,17.2,17.13,17.19
2024/03/03 5:00:00,2024/03/03,05:00:00,17.13,17.04,17.12
2024/03/03 6:00:00,2024/03/03,06:00:00,17.07,16.97,17.06
2024/03/03 7:00:00,2024/03/03,07:00:00,17.11,17.03,17.07
2024/03/03 8:00:00,2024/03/03,08:00:00,17.11,17.04,17.11
2024/03/03 9:00:00,2024/03/03,09:00:00,17.26,17.22,17.27
2024/03/03 10:00:00,2024/03/03,10:00:00,17.32,17.22,17.29
2024/03/03 11:00:00,2024/03/03,11:00:00,17.36,17.29,17.32
2024/03/03 12:00:00,2024/03/03,12:00:00,17.4,17.29,17.32
2024/03/03 13:00:00,2024/03/03,13:00:00,17.47,17.3,17.31
2024/03/03 14:00:00,2024/03/03,14:00:00,17.45,17.35,17.32
2024/03/03 15:00:00,2024/03/03,15:00:00,17.51,17.29,17.29
2024/03/03 16:00:00,2024/03/03,16:00:00,17.45,17.35,17.32
2024/03/03 17:00:00,2024/03/03,17:00:00,17.39,17.35,17.38
2024/03/03 18:00:00,2024/03/03,18:00:00,17.38,17.29,17.36
2024/03/03 19:00:00,2024/03/03,19:00:00,17.33,17.26,17.32
2024/03/03 20:00:00,2024/03/03,20:00:00,17.32,17.22,17.3
2024/03/03 21:00:00,2024/03/03,21:00:00,17.32,17.27,17.32
2024/03/03 22:00:00,2024/03/03,22:00:00,17.32,17.23,17.32
2024/03/03 23:00:00,2024/03/03,23:00:00,17.32,17.22,17.26
2024/03/04 0:00:00,2024/03/04,00:00:00,17.26,17.17,17.24
2024/03/04 1:00:00,2024/03/04,01:00:00,17.21,17.15,17.19
2024/03/04 2:00:00,2024/03/04,02:00:00,17.23,17.15,17.2
2024/03/04 3:00:00,2024/03/04,03:00:00,17.21,17.16,17.2
2024/03/04 4:00:00,2024/03/04,04:00:00,17.22,17.15,17.19
2024/03/04 5:00:00,2024/03/04,05:00:00,17.2,17.13,17.19
2024/03/04 6:00:00,2024/03/04,06:00:00,17.2,17.1,17.17
2024/03/04 7:00:00,2024/03/04,07:00:00,17.2,17.1,17.19
2024/03/04 8:00:00,2024/03/04,08:00:00,17.2,17.1,17.17
2024/03/04 9:00:00,2024/03/04,09:00:00,17.2,17.1,17.18
2024/03/04 10:00:00,2024/03/04,10:00:00,17.2,17.1,17.18
2024/03/04 11:00:00,2024/03/04,11:00:00,17.26,17.15,17.19
2024/03/04 12:00:00,2024/03/04,12:00:00,17.33,17.18,17.19
2024/03/04 13:00:00,2024/03/04,13:00:00,17.32,17.22,17.19
2024/03/04 14:00:00,2024/03/04,14:00:00,17.39,17.22,17.19
2024/03/04 15:00:00,2024/03/04,15:00:00,17.4,17.26,17.19
2024/03/04 16:00:00,2024/03/04,16:00:00,17.33,17.22,17.25
2024/03/04 17:00:00,2024/03/04,17:00:00,17.32,17.23,17.19
2024/03/04 18:00:00,2024/03/04,18:00:00,17.27,17.22,17.19
2024/03/04 19:00:00,2024/03/04,19:00:00,17.27,17.21,17.2
2024/03/04 20:00:00,2024/03/04,20:00:00,17.26,17.17,17.22
2024/03/04 21:00:00,2024/03/04,21:00:00,17.17,17.1,17.12
2024/03/04 22:00:00,2024/03/04,22:00:00,17.07,16.97,17.01
2024/03/04 23:00:00,2024/03/04,23:00:00,17.01,16.97,17
2024/03/05 0:00:00,2024/03/05,00:00:00,17.09,17.04,17.09
2024/03/05 1:00:00,2024/03/05,01:00:00,17.2,17.1,17.15
2024/03/05 2:00:00,2024/03/05,02:00:00,17.2,17.12,17.19
2024/03/05 3:00:00,2024/03/05,03:00:00,17.18,17.1,17.14
2024/03/05 4:00:00,2024/03/05,04:00:00,17.19,17.1,17.13
2024/03/05 5:00:00,2024/03/05,05:00:00,17.14,17.1,17.13
2024/03/05 6:00:00,2024/03/05,06:00:00,17.13,17.1,17.13
2024/03/05 7:00:00,2024/03/05,07:00:00,17.13,17.07,17.13
2024/03/05 8:00:00,2024/03/05,08:00:00,17.13,17.04,17.12
2024/03/05 9:00:00,2024/03/05,09:00:00,17.13,17.04,17.12
2024/03/05 10:00:00,2024/03/05,10:00:00,17.14,17.07,17.13
2024/03/05 11:00:00,2024/03/05,11:00:00,17.14,17.07,17.13
2024/03/05 12:00:00,2024/03/05,12:00:00,17.17,17.08,17.14
2024/03/05 13:00:00,2024/03/05,13:00:00,17.15,17.09,17.17
2024/03/05 14:00:00,2024/03/05,14:00:00,17.19,17.1,17.14
2024/03/05 15:00:00,2024/03/05,15:00:00,17.2,17.1,17.15
2024/03/05 16:00:00,2024/03/05,16:00:00,17.2,17.1,17.14
2024/03/05 17:00:00,2024/03/05,17:00:00,17.19,17.1,17.15
2024/03/05 18:00:00,2024/03/05,18:00:00,17.19,17.1,17.13
2024/03/05 19:00:00,2024/03/05,19:00:00,17.17,17.1,17.14
2024/03/05 20:00:00,2024/03/05,20:00:00,17.17,17.09,17.13
2024/03/05 21:00:00,2024/03/05,21:00:00,17.15,17.1,17.14
2024/03/05 22:00:00,2024/03/05,22:00:00,17.17,17.1,17.13
2024/03/05 23:00:00,2024/03/05,23:00:00,17.17,17.1,17.13
2024/03/06 0:00:00,2024/03/06,00:00:00,17.13,17.08,17.13
2024/03/06 1:00:00,2024/03/06,01:00:00,17.13,17.04,17.11
2024/03/06 2:00:00,2024/03/06,02:00:00,17.07,16.98,17.04
2024/03/06 3:00:00,2024/03/06,03:00:00,17,16.91,16.99
2024/03/06 4:00:00,2024/03/06,04:00:00,17.01,16.91,16.98
2024/03/06 5:00:00,2024/03/06,05:00:00,17.01,16.91,17
2024/03/06 6:00:00,2024/03/06,06:00:00,17,16.91,17.01
2024/03/06 7:00:00,2024/03/06,07:00:00,17,16.91,17.05
2024/03/06 8:00:00,2024/03/06,08:00:00,17.01,16.92,17.01
2024/03/06 9:00:00,2024/03/06,09:00:00,17.46,17.41,17.32
2024/03/06 10:00:00,2024/03/06,10:00:00,17.49,17.35,17.25
2024/03/06 11:00:00,2024/03/06,11:00:00,17.18,17.1,17.13
2024/03/06 12:00:00,2024/03/06,12:00:00,17.2,17.12,17.18
2024/03/06 13:00:00,2024/03/06,13:00:00,17.26,17.16,17.17
2024/03/06 14:00:00,2024/03/06,14:00:00,17.76,17.69,17.74
2024/03/06 15:00:00,2024/03/06,15:00:00,17.95,17.85,17.92
2024/03/06 16:00:00,2024/03/06,16:00:00,18.07,17.98,18.05
2024/03/06 17:00:00,2024/03/06,17:00:00,18.07,18,18.01
2024/03/06 18:00:00,2024/03/06,18:00:00,17.94,17.85,17.85
2024/03/06 19:00:00,2024/03/06,19:00:00,17.76,17.66,17.74
2024/03/06 20:00:00,2024/03/06,20:00:00,17.68,17.6,17.63
2024/03/06 21:00:00,2024/03/06,21:00:00,17.51,17.42,17.48
2024/03/06 22:00:00,2024/03/06,22:00:00,17.32,17.22,17.3
2024/03/06 23:00:00,2024/03/06,23:00:00,17.32,17.22,17.3
2024/03/07 0:00:00,2024/03/07,00:00:00,17.29,17.22,17.26
2024/03/07 1:00:00,2024/03/07,01:00:00,17.26,17.18,17.25
2024/03/07 2:00:00,2024/03/07,02:00:00,17.25,17.16,17.23
2024/03/07 3:00:00,2024/03/07,03:00:00,17.23,17.16,17.22
2024/03/07 4:00:00,2024/03/07,04:00:00,17.2,17.13,17.21
2024/03/07 5:00:00,2024/03/07,05:00:00,17.2,17.15,17.19
2024/03/07 6:00:00,2024/03/07,06:00:00,17.22,17.16,17.19
2024/03/07 7:00:00,2024/03/07,07:00:00,17.2,17.1,17.18
2024/03/07 8:00:00,2024/03/07,08:00:00,17.2,17.13,17.2
2024/03/07 9:00:00,2024/03/07,09:00:00,17.21,17.16,17.2
2024/03/07 10:00:00,2024/03/07,10:00:00,17.2,17.11,17.19
2024/03/07 11:00:00,2024/03/07,11:00:00,17.38,17.29,17.37
2024/03/07 12:00:00,2024/03/07,12:00:00,17.51,17.41,17.49
2024/03/07 13:00:00,2024/03/07,13:00:00,17.7,17.57,17.57
2024/03/07 14:00:00,2024/03/07,14:00:00,17.71,17.62,17.6
2024/03/07 15:00:00,2024/03/07,15:00:00,17.81,17.72,17.56
2024/03/07 16:00:00,2024/03/07,16:00:00,17.82,17.73,17.53
2024/03/07 17:00:00,2024/03/07,17:00:00,17.63,17.54,17.57
2024/03/07 18:00:00,2024/03/07,18:00:00,17.51,17.42,17.5
2024/03/07 19:00:00,2024/03/07,19:00:00,17.5,17.41,17.48
2024/03/07 20:00:00,2024/03/07,20:00:00,17.44,17.35,17.42
2024/03/07 21:00:00,2024/03/07,21:00:00,17.33,17.24,17.31
2024/03/07 22:00:00,2024/03/07,22:00:00,17.2,17.1,17.18
2024/03/07 23:00:00,2024/03/07,23:00:00,17.76,17.68,17.71
2024/03/08 0:00:00,2024/03/08,00:00:00,17.57,17.47,17.5
2024/03/08 1:00:00,2024/03/08,01:00:00,17.45,17.37,17.42
2024/03/08 2:00:00,2024/03/08,02:00:00,17.26,17.19,17.25
2024/03/08 3:00:00,2024/03/08,03:00:00,17.23,17.15,17.2
2024/03/08 4:00:00,2024/03/08,04:00:00,17.14,17.08,17.14
2024/03/08 5:00:00,2024/03/08,05:00:00,17.13,17.04,17.11
2024/03/08 6:00:00,2024/03/08,06:00:00,17.12,17.04,17.1
2024/03/08 7:00:00,2024/03/08,07:00:00,17.18,17.1,17.16
2024/03/08 8:00:00,2024/03/08,08:00:00,17.19,17.1,17.16
2024/03/08 9:00:00,2024/03/08,09:00:00,17.13,17.08,17.13
2024/03/08 10:00:00,2024/03/08,10:00:00,17.13,17.05,17.13
2024/03/08 11:00:00,2024/03/08,11:00:00,17.41,17.35,17.38
2024/03/08 12:00:00,2024/03/08,12:00:00,17.39,17.34,17.38
2024/03/08 13:00:00,2024/03/08,13:00:00,17.01,16.92,17
2024/03/08 14:00:00,2024/03/08,14:00:00,17.07,16.97,17.04
2024/03/08 15:00:00,2024/03/08,15:00:00,17.06,16.97,17.03
2024/03/08 16:00:00,2024/03/08,16:00:00,16.97,16.91,16.96
2024/03/08 17:00:00,2024/03/08,17:00:00,16.95,16.9,16.94
2024/03/08 18:00:00,2024/03/08,18:00:00,16.95,16.85,16.94
2024/03/08 19:00:00,2024/03/08,19:00:00,16.94,16.85,16.93
2024/03/08 20:00:00,2024/03/08,20:00:00,16.95,16.85,16.92
2024/03/08 21:00:00,2024/03/08,21:00:00,16.9,16.85,16.89
2024/03/08 22:00:00,2024/03/08,22:00:00,16.88,16.8,16.87
2024/03/08 23:00:00,2024/03/08,23:00:00,16.88,16.79,16.84
2024/03/09 0:00:00,2024/03/09,00:00:00,16.75,16.66,16.74
2024/03/09 1:00:00,2024/03/09,01:00:00,16.63,16.6,16.64
2024/03/09 2:00:00,2024/03/09,02:00:00,16.5,16.42,16.5
2024/03/09 3:00:00,2024/03/09,03:00:00,16.57,16.51,16.56
2024/03/09 4:00:00,2024/03/09,04:00:00,16.57,16.47,16.57
2024/03/09 5:00:00,2024/03/09,05:00:00,16.09,16.04,16.08
2024/03/09 6:00:00,2024/03/09,06:00:00,16.09,16.03,16.11
2024/03/09 7:00:00,2024/03/09,07:00:00,16.51,16.42,16.45
2024/03/09 8:00:00,2024/03/09,08:00:00,16.26,16.17,16.24
2024/03/09 9:00:00,2024/03/09,09:00:00,16.19,16.11,16.18
2024/03/09 10:00:00,2024/03/09,10:00:00,16.63,16.54,16.61
2024/03/09 11:00:00,2024/03/09,11:00:00,16.52,16.46,16.5
2024/03/09 12:00:00,2024/03/09,12:00:00,16.5,16.41,16.41
2024/03/09 13:00:00,2024/03/09,13:00:00,16.45,16.35,16.39
2024/03/09 14:00:00,2024/03/09,14:00:00,16.72,16.65,16.6
2024/03/09 15:00:00,2024/03/09,15:00:00,17.07,16.97,16.98
2024/03/09 16:00:00,2024/03/09,16:00:00,17.13,17.04,17.11
2024/03/09 17:00:00,2024/03/09,17:00:00,17.08,17.02,17.06
2024/03/09 18:00:00,2024/03/09,18:00:00,16.95,16.86,16.86
2024/03/09 19:00:00,2024/03/09,19:00:00,16.91,16.85,16.89
2024/03/09 20:00:00,2024/03/09,20:00:00,16.95,16.85,16.91
2024/03/09 21:00:00,2024/03/09,21:00:00,16.79,16.72,16.8
2024/03/09 22:00:00,2024/03/09,22:00:00,16.76,16.66,16.71
2024/03/09 23:00:00,2024/03/09,23:00:00,16.76,16.7,16.75
2024/03/10 0:00:00,2024/03/10,00:00:00,16.64,16.56,16.56
2024/03/10 1:00:00,2024/03/10,01:00:00,16.39,16.34,16.38
2024/03/10 2:00:00,2024/03/10,02:00:00,16.36,16.29,16.35
2024/03/10 3:00:00,2024/03/10,03:00:00,16.13,16.06,16.13
2024/03/10 4:00:00,2024/03/10,04:00:00,16.32,16.22,16.3
2024/03/10 5:00:00,2024/03/10,05:00:00,16.51,16.44,16.5
2024/03/10 6:00:00,2024/03/10,06:00:00,16.36,16.29,16.36
2024/03/10 7:00:00,2024/03/10,07:00:00,16.61,16.54,16.58
2024/03/10 8:00:00,2024/03/10,08:00:00,16.7,16.6,16.68

2024/03/10 10:00:00,2024/03/10,10:00:00,16.76,16.66,16.73
2024/03/10 11:00:00,2024/03/10,11:00:00,16.76,16.66,16.69
2024/03/10 12:00:00,2024/03/10,12:00:00,16.75,16.61,16.63
2024/03/10 13:00:00,2024/03/10,13:00:00,16.82,16.62,16.6
2024/03/10 14:00:00,2024/03/10,14:00:00,16.7,16.6,16.57
2024/03/10 15:00:00,2024/03/10,15:00:00,16.7,16.6,16.58
2024/03/10 16:00:00,2024/03/10,16:00:00,16.7,16.61,16.67
2024/03/10 17:00:00,2024/03/10,17:00:00,16.7,16.64,16.69
2024/03/10 18:00:00,2024/03/10,18:00:00,16.66,16.6,16.62
2024/03/10 19:00:00,2024/03/10,19:00:00,16.63,16.54,16.61
2024/03/10 20:00:00,2024/03/10,20:00:00,16.58,16.52,16.57
2024/03/10 21:00:00,2024/03/10,21:00:00,16.57,16.48,16.56
2024/03/10 22:00:00,2024/03/10,22:00:00,16.53,16.47,16.53
2024/03/10 23:00:00,2024/03/10,23:00:00,16.51,16.45,16.5
2024/03/11 0:00:00,2024/03/11,00:00:00,16.51,16.44,16.5
2024/03/11 1:00:00,2024/03/11,01:00:00,16.53,16.47,16.51
2024/03/11 2:00:00,2024/03/11,02:00:00,16.57,16.47,16.55
2024/03/11 3:00:00,2024/03/11,03:00:00,16.55,16.47,16.51
2024/03/11 4:00:00,2024/03/11,04:00:00,16.5,16.41,16.5
2024/03/11 5:00:00,2024/03/11,05:00:00,16.67,16.6,16.64
2024/03/11 6:00:00,2024/03/11,06:00:00,16.65,16.58,16.63
2024/03/11 7:00:00,2024/03/11,07:00:00,16.64,16.56,16.63
2024/03/11 8:00:00,2024/03/11,08:00:00,16.61,16.54,16.58
2024/03/11 9:00:00,2024/03/11,09:00:00,16.57,16.47,16.55
2024/03/11 10:00:00,2024/03/11,10:00:00,16.57,16.47,16.5
2024/03/11 11:00:00,2024/03/11,11:00:00,16.7,16.53,16.53
2024/03/11 12:00:00,2024/03/11,12:00:00,16.83,16.6,16.63
2024/03/11 13:00:00,2024/03/11,13:00:00,16.82,16.66,16.58
2024/03/11 14:00:00,2024/03/11,14:00:00,16.82,16.54,16.62
2024/03/11 15:00:00,2024/03/11,15:00:00,16.45,16.32,16.21
2024/03/11 16:00:00,2024/03/11,16:00:00,16.63,16.54,16.5
2024/03/11 17:00:00,2024/03/11,17:00:00,16.57,16.47,16.44
2024/03/11 18:00:00,2024/03/11,18:00:00,16.63,16.54,16.56
2024/03/11 19:00:00,2024/03/11,19:00:00,16.57,16.53,16.57
2024/03/11 20:00:00,2024/03/11,20:00:00,16.58,16.53,16.57
2024/03/11 21:00:00,2024/03/11,21:00:00,16.57,16.52,16.57
2024/03/11 22:00:00,2024/03/11,22:00:00,16.52,16.46,16.51
2024/03/11 23:00:00,2024/03/11,23:00:00,16.45,16.41,16.48
2024/03/12 0:00:00,2024/03/12,00:00:00,16.45,16.38,16.48
2024/03/12 1:00:00,2024/03/12,01:00:00,16.45,16.37,16.5
2024/03/12 2:00:00,2024/03/12,02:00:00,16.38,16.31,16.41
2024/03/12 3:00:00,2024/03/12,03:00:00,16.26,16.23,16.36
2024/03/12 4:00:00,2024/03/12,04:00:00,16.39,16.35,16.5
2024/03/12 5:00:00,2024/03/12,05:00:00,16.5,16.41,16.48
2024/03/12 6:00:00,2024/03/12,06:00:00,16.49,16.41,16.48
2024/03/12 7:00:00,2024/03/12,07:00:00,16.45,16.4,16.44
2024/03/12 8:00:00,2024/03/12,08:00:00,16.45,16.35,16.42
2024/03/12 9:00:00,2024/03/12,09:00:00,16.45,16.36,16.43
2024/03/12 10:00:00,2024/03/12,10:00:00,16.45,16.35,16.43
2024/03/12 11:00:00,2024/03/12,11:00:00,16.5,16.41,16.44
2024/03/12 12:00:00,2024/03/12,12:00:00,16.51,16.43,16.49
2024/03/12 13:00:00,2024/03/12,13:00:00,16.55,16.47,16.5
2024/03/12 14:00:00,2024/03/12,14:00:00,16.51,16.42,16.49
2024/03/12 15:00:00,2024/03/12,15:00:00,16.57,16.48,16.55
2024/03/12 16:00:00,2024/03/12,16:00:00,16.52,16.47,16.5
2024/03/12 17:00:00,2024/03/12,17:00:00,16.46,16.41,16.44
2024/03/12 18:00:00,2024/03/12,18:00:00,16.45,16.36,16.44
2024/03/12 19:00:00,2024/03/12,19:00:00,16.45,16.36,16.44
2024/03/12 20:00:00,2024/03/12,20:00:00,16.4,16.34,16.39
2024/03/12 21:00:00,2024/03/12,21:00:00,16.32,16.23,16.3
2024/03/12 22:00:00,2024/03/12,22:00:00,16.32,16.28,16.33
2024/03/12 23:00:00,2024/03/12,23:00:00,16.37,16.29,16.35
2024/03/13 0:00:00,2024/03/13,00:00:00,16.34,16.29,16.33
2024/03/13 1:00:00,2024/03/13,01:00:00,16.32,16.22,16.29
2024/03/13 2:00:00,2024/03/13,02:00:00,16.23,16.16,16.21
2024/03/13 3:00:00,2024/03/13,03:00:00,16.37,16.29,16.33
2024/03/13 4:00:00,2024/03/13,04:00:00,16.45,16.36,16.43
2024/03/13 5:00:00,2024/03/13,05:00:00,16.4,16.34,16.41
2024/03/13 6:00:00,2024/03/13,06:00:00,16.5,16.41,16.49
2024/03/13 7:00:00,2024/03/13,07:00:00,16.51,16.42,16.49
2024/03/13 8:00:00,2024/03/13,08:00:00,16.38,16.29,16.36
2024/03/13 9:00:00,2024/03/13,09:00:00,16.32,16.22,16.3
2024/03/13 10:00:00,2024/03/13,10:00:00,16.64,16.54,16.62
2024/03/13 11:00:00,2024/03/13,11:00:00,16.77,16.65,16.68
2024/03/13 12:00:00,2024/03/13,12:00:00,16.88,16.8,16.83
2024/03/13 13:00:00,2024/03/13,13:00:00,17.01,16.91,16.89
2024/03/13 14:00:00,2024/03/13,14:00:00,17.05,16.97,17.02
2024/03/13 15:00:00,2024/03/13,15:00:00,17.14,17.04,17.03
2024/03/13 16:00:00,2024/03/13,16:00:00,17.13,16.97,16.7
2024/03/13 17:00:00,2024/03/13,17:00:00,16.88,16.79,16.45
2024/03/13 18:00:00,2024/03/13,18:00:00,16.51,16.45,16.51
2024/03/13 19:00:00,2024/03/13,19:00:00,16.57,16.52,16.59
2024/03/13 20:00:00,2024/03/13,20:00:00,16.57,16.47,16.55
2024/03/13 21:00:00,2024/03/13,21:00:00,16.52,16.46,16.51
2024/03/13 22:00:00,2024/03/13,22:00:00,16.51,16.43,16.49
2024/03/13 23:00:00,2024/03/13,23:00:00,16.61,16.53,16.56
2024/03/14 0:00:00,2024/03/14,00:00:00,16.63,16.54,16.59
2024/03/14 1:00:00,2024/03/14,01:00:00,16.63,16.54,16.61
2024/03/14 2:00:00,2024/03/14,02:00:00,16.51,16.44,16.5
2024/03/14 3:00:00,2024/03/14,03:00:00,16.61,16.54,16.6
2024/03/14 4:00:00,2024/03/14,04:00:00,16.45,16.39,16.44
2024/03/14 5:00:00,2024/03/14,05:00:00,16.26,16.17,16.24
2024/03/14 6:00:00,2024/03/14,06:00:00,16.24,16.16,16.21
2024/03/14 7:00:00,2024/03/14,07:00:00,16.26,16.18,16.25
2024/03/14 8:00:00,2024/03/14,08:00:00,16.43,16.34,16.39
2024/03/14 9:00:00,2024/03/14,09:00:00,16.46,16.4,16.45
2024/03/14 10:00:00,2024/03/14,10:00:00,16.89,16.81,16.86
2024/03/14 11:00:00,2024/03/14,11:00:00,16.85,16.74,16.79
2024/03/14 12:00:00,2024/03/14,12:00:00,17.01,16.79,16.82
2024/03/14 13:00:00,2024/03/14,13:00:00,17.2,16.97,16.91
2024/03/14 14:00:00,2024/03/14,14:00:00,17.2,17.04,16.93
2024/03/14 15:00:00,2024/03/14,15:00:00,17.08,16.97,16.92
2024/03/14 16:00:00,2024/03/14,16:00:00,17.04,16.95,16.82
2024/03/14 17:00:00,2024/03/14,17:00:00,16.46,16.41,16.45
2024/03/14 18:00:00,2024/03/14,18:00:00,16.37,16.29,16.37
2024/03/14 19:00:00,2024/03/14,19:00:00,16.32,16.23,16.31
2024/03/14 20:00:00,2024/03/14,20:00:00,16.31,16.22,16.28
2024/03/14 21:00:00,2024/03/14,21:00:00,16.32,16.23,16.33
2024/03/14 22:00:00,2024/03/14,22:00:00,16.32,16.29,16.32
2024/03/14 23:00:00,2024/03/14,23:00:00,16.44,16.35,16.42
2024/03/15 0:00:00,2024/03/15,00:00:00,16.57,16.47,16.53
2024/03/15 1:00:00,2024/03/15,01:00:00,16.62,16.55,16.63
2024/03/15 2:00:00,2024/03/15,02:00:00,16.51,16.42,16.47
2024/03/15 3:00:00,2024/03/15,03:00:00,16.33,16.27,16.32
2024/03/15 4:00:00,2024/03/15,04:00:00,16.32,16.23,16.3
2024/03/15 5:00:00,2024/03/15,05:00:00,16.33,16.28,16.32
2024/03/15 6:00:00,2024/03/15,06:00:00,16.38,16.29,16.35
2024/03/15 7:00:00,2024/03/15,07:00:00,16.32,16.23,16.29
2024/03/15 8:00:00,2024/03/15,08:00:00,16.3,16.22,16.27
2024/03/15 9:00:00,2024/03/15,09:00:00,16.43,16.35,16.37
2024/03/15 10:00:00,2024/03/15,10:00:00,16.6,16.53,16.55
2024/03/15 11:00:00,2024/03/15,11:00:00,16.76,16.6,16.59
2024/03/15 12:00:00,2024/03/15,12:00:00,16.71,16.57,16.69
2024/03/15 13:00:00,2024/03/15,13:00:00,16.73,16.72,16.78

2024/03/15 15:00:00,2024/03/15,15:00:00,17.08,16.97,16.73
2024/03/15 16:00:00,2024/03/15,16:00:00,16.95,16.85,16.8
2024/03/15 17:00:00,2024/03/15,17:00:00,16.51,16.41,16.51
2024/03/15 18:00:00,2024/03/15,18:00:00,16.39,16.33,16.39
2024/03/15 19:00:00,2024/03/15,19:00:00,16.38,16.29,16.37
2024/03/15 20:00:00,2024/03/15,20:00:00,16.33,16.25,16.32
2024/03/15 21:00:00,2024/03/15,21:00:00,16.32,16.28,16.35
2024/03/15 22:00:00,2024/03/15,22:00:00,16.38,16.31,16.43
2024/03/15 23:00:00,2024/03/15,23:00:00,16.46,16.41,16.45
2024/03/16 0:00:00,2024/03/16,00:00:00,16.48,16.41,16.47
2024/03/16 1:00:00,2024/03/16,01:00:00,16.51,16.43,16.52
2024/03/16 2:00:00,2024/03/16,02:00:00,16.51,16.46,16.51
2024/03/16 3:00:00,2024/03/16,03:00:00,16.45,16.41,16.44
2024/03/16 4:00:00,2024/03/16,04:00:00,16.26,16.2,16.25
2024/03/16 5:00:00,2024/03/16,05:00:00,16.19,16.16,16.2
2024/03/16 6:00:00,2024/03/16,06:00:00,16.23,16.16,16.2
2024/03/16 7:00:00,2024/03/16,07:00:00,16.18,16.1,16.14
2024/03/16 8:00:00,2024/03/16,08:00:00,16.19,16.11,16.18
2024/03/16 9:00:00,2024/03/16,09:00:00,16.13,16.04,16.11
2024/03/16 10:00:00,2024/03/16,10:00:00,16.19,16.04,16.11
2024/03/16 11:00:00,2024/03/16,11:00:00,16.38,16.1,16.13
2024/03/16 12:00:00,2024/03/16,12:00:00,16.46,16.27,16.24
2024/03/16 13:00:00,2024/03/16,13:00:00,16.82,16.29,16.39
2024/03/16 14:00:00,2024/03/16,14:00:00,16.88,16.35,16.31
2024/03/16 15:00:00,2024/03/16,15:00:00,16.82,16.29,16.17
2024/03/16 16:00:00,2024/03/16,16:00:00,16.85,16.71,16.39
2024/03/16 17:00:00,2024/03/16,17:00:00,16.76,16.61,16.17
2024/03/16 18:00:00,2024/03/16,18:00:00,16.77,16.66,16.19
2024/03/16 19:00:00,2024/03/16,19:00:00,16.7,16.6,16.14
2024/03/16 20:00:00,2024/03/16,20:00:00,16.57,16.47,16.32
2024/03/16 21:00:00,2024/03/16,21:00:00,16.53,16.45,16.29
2024/03/16 22:00:00,2024/03/16,22:00:00,16.5,16.41,16.26
2024/03/16 23:00:00,2024/03/16,23:00:00,16.45,16.35,16.26
2024/03/17 0:00:00,2024/03/17,00:00:00,16.48,16.4,16.44
2024/03/17 1:00:00,2024/03/17,01:00:00,16.57,16.47,16.4
2024/03/17 2:00:00,2024/03/17,02:00:00,16.56,16.47,16.5
2024/03/17 3:00:00,2024/03/17,03:00:00,16.54,16.47,16.44
2024/03/17 4:00:00,2024/03/17,04:00:00,16.51,16.41,16.44


2024/03/17 7:00:00,2024/03/17,07:00:00,16.41,16.34,16.38
2024/03/17 8:00:00,2024/03/17,08:00:00,16.88,16.8,16.82
2024/03/17 9:00:00,2024/03/17,09:00:00,16.58,16.54,16.61
2024/03/17 10:00:00,2024/03/17,10:00:00,16.73,16.48,16.53
2024/03/17 11:00:00,2024/03/17,11:00:00,16.96,16.72,16.5
2024/03/17 12:00:00,2024/03/17,12:00:00,16.95,16.79,16.62
2024/03/17 13:00:00,2024/03/17,13:00:00,16.95,16.84,16.63
2024/03/17 14:00:00,2024/03/17,14:00:00,17.1,17,16.75
2024/03/17 15:00:00,2024/03/17,15:00:00,17.13,17.01,16.91
2024/03/17 16:00:00,2024/03/17,16:00:00,17.07,16.97,16.94
2024/03/17 17:00:00,2024/03/17,17:00:00,17.03,16.94,17
2024/03/17 18:00:00,2024/03/17,18:00:00,17.13,17.04,17.07
2024/03/17 19:00:00,2024/03/17,19:00:00,17.07,16.99,17.06
2024/03/17 20:00:00,2024/03/17,20:00:00,17.01,16.95,17
2024/03/17 21:00:00,2024/03/17,21:00:00,16.95,16.91,17
2024/03/17 22:00:00,2024/03/17,22:00:00,16.9,16.85,16.99
2024/03/17 23:00:00,2024/03/17,23:00:00,16.95,16.91,17
2024/03/18 0:00:00,2024/03/18,00:00:00,16.95,16.87,16.96
2024/03/18 1:00:00,2024/03/18,01:00:00,16.94,16.85,16.93
2024/03/18 2:00:00,2024/03/18,02:00:00,16.95,16.85,16.91
2024/03/18 3:00:00,2024/03/18,03:00:00,16.88,16.84,16.88
2024/03/18 4:00:00,2024/03/18,04:00:00,16.86,16.79,16.86
2024/03/18 5:00:00,2024/03/18,05:00:00,16.82,16.78,16.84
2024/03/18 6:00:00,2024/03/18,06:00:00,16.76,16.66,16.74
2024/03/18 7:00:00,2024/03/18,07:00:00,16.73,16.66,16.73